Skip Page Navigation
NASA JPL Caltech
NASA Logo - Jet Propulsion Laboratory + View the NASA Portal
+ Center for Near-Earth Object Studies
JPL Home Earth Solar System Stars & Galaxies Technology
JPL Solar System Dynamics
BODIES ORBITS EPHEMERIDES TOOLS PHYSICAL DATA DISCOVERY FAQ SITE MAP
JPL Small-Body Database Browser
Search: [ help ]  
523182 (2016 TV99)
Classification: Main-belt Asteroid          SPK-ID: 2523182
Ephemeris | Orbit Diagram | Orbital Elements | Mission Design | Physical Parameters | Discovery Circumstances ]

[ show orbit diagram ]
Orbital Elements at Epoch 2459000.5 (2020-May-31.0) TDB
Reference: JPL 4 (heliocentric ecliptic J2000)
 Element Value Uncertainty (1-sigma)   Units 
e .08931480682508559 8.4819e-08  
a 3.085065593813737 7.0867e-08 au
q 2.809523556259545 2.617e-07 au
i 10.89466288226947 9.3771e-06 deg
node 194.2214101434908 4.6654e-05 deg
peri 168.8739545501499 7.0268e-05 deg
M 277.0514134902834 5.6476e-05 deg
tp 2459456.538511400735
(2021-Aug-30.03851140)
0.00031909 TDB
period 1979.224372738806
5.42
6.8197e-05
1.867e-07
d
yr
n .1818894335369567 6.2673e-09 deg/d
Q 3.360607631367929 7.7196e-08 au
  Orbit Determination Parameters
   # obs. used (total)      63  
   data-arc span      4953 days (13.56 yr)  
   first obs. used      2005-10-01  
   last obs. used      2019-04-24  
   planetary ephem.      DE431  
   SB-pert. ephem.      SB431-N16  
   condition code      0  
   norm. resid. RMS      .59851  
   source      ORB  
   producer      Otto Matic  
   solution date      2019-Jul-15 07:15:00  

Additional Information
 Earth MOID = 1.80853 au 
 Jupiter MOID = 2.11027 au 
 T_jup = 3.193 
[ show covariance matrix ]

Ephemeris | Orbit Diagram | Orbital Elements | Mission Design | Physical Parameters | Discovery Circumstances ]

Physical Parameter Table
Parameter Symbol Value Units Sigma Reference Notes
absolute magnitude H 16.5   n/a MPO448168  

523182 (2016 TV99)          Discovered 2005-Oct-01 by Spacewatch at Kitt Peak
Reference: Last Updated: 2018-05-31
Ephemeris | Orbit Diagram | Orbital Elements | Mission Design | Physical Parameters | Discovery Circumstances ]
ABOUT SSD CREDITS/AWARDS PRIVACY/COPYRIGHT GLOSSARY LINKS
FirstGov 2020-Dec-03 01:34 UT
(server date/time)  
NASA Home Page
Site Manager:   Ryan S. Park
Webmaster  Alan B. Chamberlin